[[{"header":{"parameterUnit":"m.s-1","parameterCategory":1,"la1":30.2991,"la2":30.254,"lo1":-89.0895,"lo2":-89.0444,"dy":0.0017,"dx":0.0017,"nx":28,"ny":28,"refTime":"2024-02-29T03:00:00:Z","depth":0,"parameterNumber":2,"parameterNumberName":"U-component_of_WINDS"},"data":[0,0,0,0,0,0,0,0,0,0,0,0,0,0,0,0,0,0,0,0,0,0,0,0,0,0,0,0,0,0,0,0,0,0,0,0,0,0,0,0,0,0,0,0,0,0,0,0,0,0,0,0,0,0,0,0,0,0,-5.3399,-5.34,0,-5.3463,-5.3463,-5.3464,-5.3354,-5.335,-5.3346,-5.3343,-5.3408,-5.3413,-5.3418,0,0,0,0,0,0,0,0,0,0,0,0,0,-5.3183,-5.3188,-5.3399,-5.34,-5.3401,-5.3462,-5.3463,-5.3464,-5.3354,-5.335,-5.3345,-5.3341,-5.3406,-5.3412,-5.3418,0,0,0,0,0,0,0,0,0,0,0,0,0,-5.3265,-5.3189,-5.3399,-5.3353,-5.335,-5.3462,-5.3463,-5.3464,-5.3355,-5.335,-5.3344,-5.3339,-5.3404,-5.3411,-5.3419,-5.3579,0,0,-5.3443,-5.3446,0,0,0,0,0,0,0,0,-5.326,-5.3273,-5.3359,-5.3357,-5.3353,-5.3394,-5.3411,-5.3503,-5.3357,-5.3353,-5.3343,-5.3336,-5.3408,-5.3415,-5.3439,-5.3582,-5.3585,-5.3444,-5.3448,-5.3452,-5.3454,0,0,0,0,0,0,0,-5.3255,-5.3269,-5.3424,-5.3361,-5.3357,-5.333,-5.3335,-5.3428,-5.3411,-5.3353,-5.3345,-5.3354,-5.3405,-5.3432,-5.344,-5.3586,-5.3443,-5.345,-5.3455,-5.3458,-5.3863,-5.3869,0,0,0,0,0,0,-5.3255,-5.3265,-5.3422,-5.3426,-5.3292,-5.3338,-5.3344,-5.3387,-5.341,-5.3408,-5.3359,-5.3349,-5.3421,-5.3431,-5.3441,-5.363,-5.3452,-5.3459,-5.3463,-5.3857,-5.3864,-5.3871,0,0,0,0,0,0,-5.3251,-5.327,-5.342,-5.3344,-5.3361,-5.3348,-5.3397,-5.3391,-5.3418,-5.3414,-5.341,-5.3389,-5.3417,-5.3431,-5.3545,-5.3631,-5.3462,-5.3469,-5.385,-5.3859,-5.3867,-5.401,0,0,0,0,0,0,-5.3245,-5.3269,-5.333,-5.3346,-5.3365,-5.3523,-5.3402,-5.3396,-5.3431,-5.3419,-5.3442,-5.344,-5.3414,-5.3534,-5.3553,-5.3639,-5.3476,-5.3842,-5.3854,-5.3864,-5.3998,-5.4023,-5.4044,0,0,0,0,0,-5.3237,-5.3367,-5.3333,-5.3353,-5.3441,-5.3529,-5.3539,-5.3506,-5.3439,-5.35,-5.3497,-5.3439,-5.3618,-5.3547,-5.3567,-5.3657,-5.3836,-5.385,-5.3864,-5.3987,-5.4018,-5.4044,0,0,0,0,0,0,-5.3362,-5.3369,-5.3331,-5.347,-5.35,-5.351,-5.3586,-5.354,-5.3589,-5.3576,-5.3532,-5.3538,-5.3662,-5.367,-5.3591,-5.3812,-5.3716,-5.3734,-5.3803,-5.3832,-5.3855,-5.3851,-5.3482,0,0,0,0,0,-5.3405,-5.3476,-5.3478,-5.36,-5.3617,-5.3599,-5.3636,-5.3608,-5.3637,-5.3649,-5.3654,-5.3685,-5.3747,-5.379,-5.3847,-5.3997,-5.4001,-5.4069,-5.4092,-5.4111,-5.4128,-5.4208,-5.4239,-5.3916,-5.3915,-5.3915,0,0,-5.3496,-5.3508,-5.3556,-5.3626,-5.3645,-5.3719,-5.361,-5.3693,-5.3748,-5.3661,-5.377,-5.3776,-5.3806,-5.394,-5.3999,-5.3951,-5.4218,-5.4129,-5.4144,-5.4151,-5.4226,-5.4256,-5.4284,-5.3925,-5.3923,-5.3922,0,0,-5.37,-5.3716,-5.382,-5.3842,-5.3873,-5.386,-5.3885,-5.3902,-5.3902,-5.4011,-5.3947,-5.4011,-5.4121,-5.4145,-5.4172,-5.4385,-5.4333,-5.4404,-5.4527,-5.4606,-5.4631,-5.4654,-5.473,-5.4758,-5.4421,-5.4421,-5.4421,0,-5.3809,-5.3918,-5.3879,-5.3967,-5.4,-5.3924,-5.4029,-5.4052,-5.41,-5.4125,-5.407,-5.4205,-5.422,-5.4359,-5.441,-5.4434,-5.4462,-5.4402,-5.4631,-5.4653,-5.4673,-5.4746,-5.4775,-5.443,-5.4429,-5.4428,-5.4427,0,-5.4051,-5.4128,-5.4208,-5.4257,-5.4298,-5.4394,-5.437,-5.4417,-5.4385,-5.4378,-5.4489,-5.4505,-5.4564,-5.4595,-5.4564,-5.4729,-5.4698,-5.4638,-5.454,-5.4713,-5.4781,-5.4808,-5.4442,-5.4439,-5.4436,-5.4434,0,0,-5.4336,-5.4362,-5.4392,-5.4413,-5.4441,-5.45,-5.4592,-5.465,-5.4692,-5.4727,-5.4804,-5.4897,-5.4842,-5.4872,-5.4844,-5.4913,-5.5081,-5.4844,-5.4844,-5.4888,-5.5264,-5.531,-5.5343,-5.5046,-5.5051,-5.5056,-5.5261,0,-5.4539,-5.4699,-5.4666,-5.4823,-5.4893,-5.4822,-5.4902,-5.4928,-5.4924,-5.4983,-5.4977,-5.5045,-5.4966,-5.4984,-5.5049,-5.5047,-5.5156,-5.5031,-5.5118,-5.5121,-5.5114,-5.5378,-5.5427,-5.562,-5.5287,-5.5292,-5.5295,0,-5.4798,-5.4843,-5.5007,-5.5024,-5.5052,-5.5125,-5.5176,-5.5233,-5.5261,-5.5253,-5.5287,-5.5245,-5.5336,-5.5237,-5.5362,-5.5279,-5.5312,-5.5316,-5.5322,-5.533,-5.522,-5.5394,-5.5681,-5.5711,-5.5336,-5.5333,-5.533,0,-5.499,-5.5092,-5.5204,-5.5224,-5.5246,-5.5299,-5.5311,-5.5333,-5.537,-5.5414,-5.5438,-5.5492,-5.5522,-5.5565,-5.5538,-5.5468,-5.5669,-5.5567,-5.5665,-5.5666,-5.5712,-5.571,-5.601,-5.5732,-5.5731,-5.5731,-5.573,0,-5.5221,-5.5325,-5.529,-5.5359,-5.5472,-5.5434,-5.5547,-5.555,-5.557,-5.5638,-5.5579,-5.5644,-5.5605,-5.5666,-5.5646,-5.5754,-5.5767,-5.5763,-5.5757,-5.577,-5.577,-5.5792,-5.5778,-5.5738,-5.5737,-5.5735,-5.5734,0,-5.5457,-5.5438,-5.5554,-5.5566,-5.5571,-5.5654,-5.5663,-5.5727,-5.5718,-5.5804,-5.5822,-5.5808,-5.5878,-5.5855,-5.593,-5.5916,-5.6053,-5.6029,-5.6044,-5.6039,-5.6138,-5.613,-5.6464,-5.6506,-5.62,-5.6203,-5.6205,0,-5.5606,-5.5684,-5.5703,-5.5745,-5.5761,-5.5828,-5.5865,-5.583,-5.5871,-5.5908,-5.5968,-5.6032,-5.6082,-5.6196,-5.6192,-5.6249,-5.6226,-5.6339,-5.6234,-5.6244,-5.6229,-5.6225,-5.6233,-5.6361,-5.6364,-5.6367,-5.6369,0,-5.5873,-5.586,-5.5916,-5.597,-5.6017,-5.6057,-5.6092,-5.6129,-5.6095,-5.6145,-5.6215,-5.6254,-5.633,-5.6395,-5.6446,-5.6457,-5.6409,-5.6402,-5.6428,-5.6442,-5.6448,-5.6447,-5.6103,-5.6395,-5.6393,-5.6391,-5.6389,-5.6388,-5.6071,-5.6136,-5.6161,-5.6226,-5.6248,-5.6282,-5.6343,-5.6341,-5.6399,-5.6458,-5.6433,-5.6515,-5.654,-5.6603,-5.6622,-5.6685,-5.6641,-5.6678,-5.6688,-5.6698,-5.6711,-5.6438,-5.6694,-5.6693,-5.6692,-5.6692,-5.6691,0,-5.6336,-5.6348,-5.6408,-5.6459,-5.651,-5.6458,-5.6494,-5.6541,-5.6613,-5.664,-5.669,-5.6771,-5.6833,-5.6834,-5.6892,-5.6942,-5.6921,-5.6959,-5.6955,-5.6959,-5.6747,-5.6719,-5.6975,-5.6975,-5.6975,-5.6975,-5.6975,-5.6974,-5.648,-5.6589,-5.6578,-5.6698,-5.6708,-5.6788,-5.6813,-5.6844,-5.6865,-5.6959,-5.701,-5.701,-5.7027,-5.7085,-5.714,-5.7138,-5.7163,-5.7209,-5.72,-5.7002,-5.6974,-5.6947,-5.6921,-5.7215,-5.7215,-5.7407,-5.7408,-5.741]},{"header":{"parameterUnit":"m.s-1","parameterCategory":1,"la1":30.2991,"la2":30.254,"lo1":-89.0895,"lo2":-89.0444,"dy":0.0017,"dx":0.0017,"nx":28,"ny":28,"refTime":"2024-02-29T03:00:00:Z","depth":0,"parameterNumber":3,"parameterNumberName":"V-component_of_WINDS"},"data":[0,0,0,0,0,0,0,0,0,0,0,0,0,0,0,0,0,0,0,0,0,0,0,0,0,0,0,0,0,0,0,0,0,0,0,0,0,0,0,0,0,0,0,0,0,0,0,0,0,0,0,0,0,0,0,0,0,0,-6.8073,-6.8073,0,-6.8119,-6.812,-6.812,-6.8037,-6.8035,-6.8032,-6.8029,-6.8073,-6.8076,-6.808,0,0,0,0,0,0,0,0,0,0,0,0,0,-6.7909,-6.7912,-6.8073,-6.8074,-6.8074,-6.8119,-6.812,-6.812,-6.8038,-6.8035,-6.8031,-6.8028,-6.8071,-6.8076,-6.808,0,0,0,0,0,0,0,0,0,0,0,0,0,-6.797,-6.7913,-6.8073,-6.8039,-6.8036,-6.8119,-6.812,-6.812,-6.8039,-6.8035,-6.803,-6.8027,-6.807,-6.8075,-6.8081,-6.8198,0,0,-6.8098,-6.81,0,0,0,0,0,0,0,0,-6.7967,-6.7976,-6.8043,-6.8041,-6.8038,-6.8068,-6.8077,-6.8146,-6.804,-6.8038,-6.8029,-6.8024,-6.8074,-6.8079,-6.8097,-6.82,-6.8202,-6.8099,-6.8102,-6.8104,-6.8106,0,0,0,0,0,0,0,-6.7962,-6.7974,-6.8091,-6.8044,-6.8041,-6.8019,-6.8023,-6.809,-6.8078,-6.8037,-6.8032,-6.8038,-6.8072,-6.8092,-6.8097,-6.8203,-6.8098,-6.8103,-6.8107,-6.8109,-6.8403,-6.8407,0,0,0,0,0,0,-6.7963,-6.7971,-6.809,-6.8092,-6.7992,-6.8026,-6.803,-6.8063,-6.8078,-6.8076,-6.8042,-6.8034,-6.8084,-6.8091,-6.8099,-6.8236,-6.8104,-6.8109,-6.8113,-6.8399,-6.8404,-6.8409,0,0,0,0,0,0,-6.796,-6.7974,-6.8088,-6.803,-6.8043,-6.8033,-6.807,-6.8066,-6.8085,-6.8081,-6.8078,-6.8064,-6.8081,-6.8091,-6.8174,-6.8236,-6.8112,-6.8117,-6.8394,-6.84,-6.8407,-6.8513,0,0,0,0,0,0,-6.7955,-6.7974,-6.802,-6.8032,-6.8046,-6.8164,-6.8074,-6.807,-6.8096,-6.8086,-6.8101,-6.81,-6.8079,-6.8166,-6.818,-6.8242,-6.8121,-6.8388,-6.8397,-6.8404,-6.8504,-6.8522,-6.8538,0,0,0,0,0,-6.795,-6.8047,-6.8022,-6.8037,-6.8103,-6.8168,-6.8176,-6.8151,-6.8101,-6.8146,-6.8143,-6.8099,-6.8228,-6.8175,-6.819,-6.8255,-6.8384,-6.8394,-6.8404,-6.8496,-6.8519,-6.8538,0,0,0,0,0,0,-6.8041,-6.8048,-6.8021,-6.8125,-6.8147,-6.8154,-6.821,-6.8176,-6.8212,-6.8201,-6.8167,-6.8171,-6.8261,-6.8266,-6.8208,-6.8368,-6.8297,-6.831,-6.8362,-6.8384,-6.8401,-6.8397,-6.8126,0,0,0,0,0,-6.8074,-6.8127,-6.8129,-6.8221,-6.8233,-6.822,-6.8247,-6.8226,-6.8247,-6.8255,-6.8258,-6.8279,-6.8324,-6.8354,-6.8395,-6.8504,-6.8505,-6.8555,-6.8573,-6.8587,-6.8599,-6.8656,-6.8678,-6.8442,-6.8442,-6.8442,0,0,-6.8141,-6.8151,-6.8187,-6.824,-6.8254,-6.8309,-6.8228,-6.829,-6.8329,-6.8264,-6.8343,-6.8346,-6.8367,-6.8464,-6.8506,-6.847,-6.8664,-6.86,-6.8611,-6.8615,-6.8668,-6.8691,-6.871,-6.8449,-6.8448,-6.8447,0,0,-6.8291,-6.8305,-6.8382,-6.8398,-6.8422,-6.8412,-6.8431,-6.8443,-6.8443,-6.8522,-6.8474,-6.852,-6.8598,-6.8615,-6.8633,-6.8789,-6.875,-6.8803,-6.8894,-6.8949,-6.8968,-6.8984,-6.9039,-6.9059,-6.8815,-6.8816,-6.8816,0,-6.8371,-6.8453,-6.8426,-6.8491,-6.8515,-6.8459,-6.8536,-6.8553,-6.8588,-6.8605,-6.8565,-6.8662,-6.8671,-6.8771,-6.8809,-6.8826,-6.8845,-6.8801,-6.8968,-6.8984,-6.8998,-6.905,-6.9071,-6.8822,-6.8821,-6.8821,-6.882,0,-6.8549,-6.8607,-6.8666,-6.8703,-6.8734,-6.8804,-6.8786,-6.8821,-6.8797,-6.8791,-6.8871,-6.8882,-6.8923,-6.8945,-6.8922,-6.9041,-6.9018,-6.8974,-6.8901,-6.9028,-6.9076,-6.9095,-6.8831,-6.8829,-6.8827,-6.8825,0,0,-6.8758,-6.8779,-6.8801,-6.8817,-6.8838,-6.8881,-6.8949,-6.8991,-6.902,-6.9046,-6.9101,-6.9168,-6.9127,-6.9148,-6.9126,-6.9175,-6.9297,-6.9124,-6.9124,-6.9155,-6.9427,-6.946,-6.9484,-6.9271,-6.9275,-6.9278,-6.9425,0,-6.8907,-6.9025,-6.9002,-6.9117,-6.9168,-6.9116,-6.9175,-6.9194,-6.919,-6.9232,-6.9227,-6.9275,-6.9217,-6.923,-6.9276,-6.9272,-6.9351,-6.9261,-6.932,-6.9323,-6.9316,-6.9509,-6.9544,-6.9683,-6.9444,-6.9447,-6.9449,0,-6.9096,-6.913,-6.9251,-6.9263,-6.9284,-6.9337,-6.9373,-6.9415,-6.9434,-6.9428,-6.9452,-6.942,-6.9485,-6.9413,-6.9502,-6.9441,-6.9464,-6.9466,-6.947,-6.9474,-6.9393,-6.9517,-6.9727,-6.9747,-6.9479,-6.9476,-6.9474,0,-6.9235,-6.9311,-6.9393,-6.9408,-6.9425,-6.9463,-6.9472,-6.9487,-6.9514,-6.9545,-6.9561,-6.9599,-6.962,-6.9649,-6.9628,-6.9578,-6.972,-6.9646,-6.9715,-6.9716,-6.9747,-6.9746,-6.9963,-6.9764,-6.9763,-6.9763,-6.9762,0,-6.9403,-6.9479,-6.9456,-6.9506,-6.9588,-6.956,-6.9642,-6.9644,-6.9658,-6.9707,-6.9663,-6.9709,-6.9679,-6.9722,-6.9706,-6.9782,-6.9791,-6.9787,-6.9782,-6.9791,-6.9791,-6.9804,-6.9794,-6.9768,-6.9767,-6.9766,-6.9765,0,-6.9573,-6.9561,-6.9646,-6.9655,-6.9659,-6.9719,-6.9726,-6.9772,-6.9765,-6.9827,-6.9839,-6.9828,-6.9876,-6.9859,-6.991,-6.9899,-6.9995,-6.9977,-6.9989,-6.9984,-7.0054,-7.0048,-7.0287,-7.0317,-7.0099,-7.0101,-7.0103,0,-6.9681,-6.9738,-6.9753,-6.9783,-6.9795,-6.9844,-6.9871,-6.9845,-6.9875,-6.9901,-6.9944,-6.9988,-7.0023,-7.0102,-7.0098,-7.0136,-7.0119,-7.02,-7.0124,-7.0131,-7.0119,-7.0116,-7.0121,-7.0215,-7.0218,-7.022,-7.0221,0,-6.9873,-6.9864,-6.9906,-6.9945,-6.9979,-7.0008,-7.0033,-7.006,-7.0036,-7.0071,-7.0121,-7.0148,-7.02,-7.0245,-7.0279,-7.0286,-7.025,-7.0245,-7.0263,-7.0273,-7.0277,-7.0275,-7.0029,-7.024,-7.0238,-7.0236,-7.0235,-7.0235,-7.0014,-7.0062,-7.0081,-7.0128,-7.0144,-7.0169,-7.0212,-7.0211,-7.0253,-7.0294,-7.0276,-7.0333,-7.035,-7.0393,-7.0405,-7.0448,-7.0416,-7.0442,-7.0449,-7.0456,-7.0464,-7.0271,-7.0454,-7.0453,-7.0453,-7.0452,-7.0452,0,-7.0204,-7.0213,-7.0257,-7.0294,-7.0331,-7.0295,-7.0321,-7.0353,-7.0405,-7.0424,-7.0459,-7.0515,-7.0558,-7.0557,-7.0597,-7.0631,-7.0615,-7.0642,-7.0639,-7.0641,-7.0491,-7.0471,-7.0655,-7.0655,-7.0654,-7.0654,-7.0654,-7.0654,-7.0307,-7.0385,-7.0379,-7.0464,-7.0472,-7.0529,-7.0547,-7.0569,-7.0584,-7.065,-7.0685,-7.0685,-7.0695,-7.0735,-7.0772,-7.0771,-7.0787,-7.082,-7.0812,-7.0672,-7.0652,-7.0633,-7.0614,-7.0824,-7.0824,-7.0959,-7.096,-7.0961]}]]